This is the latest recevied weather packets stored in our database for station/object PY2UTU-WX. If no packets are shown the sender has not sent any weather packets the latest 10 day(s).
| Time | Temp. | Humidity | Pressure | Rain* | Wind** | Luminosity | Snow |
|---|---|---|---|---|---|---|---|
| 1788137559 | 66° F | 98% | 693.7 mmHg | - | - | - | - |
| 1788136659 | 66° F | 98% | 693.7 mmHg | - | - | - | - |
| 1788135759 | 66° F | 98% | 693.5 mmHg | - | - | - | - |
| 1788134859 | 67° F | 98% | 693.6 mmHg | - | - | - | - |
| 1788133959 | 67° F | 98% | 693.4 mmHg | - | - | - | - |
| 1788133059 | 67° F | 98% | 693.4 mmHg | - | - | - | - |
| 1788132159 | 66° F | 98% | 693.3 mmHg | - | - | - | - |
| 1788131259 | 67° F | 98% | 693.5 mmHg | - | - | - | - |
| 1788130359 | 69° F | 98% | 693.7 mmHg | - | - | - | - |
| 1788129459 | 67° F | 98% | 693.4 mmHg | - | - | - | - |
| 1788128559 | 68° F | 98% | 693 mmHg | - | - | - | - |
| 1788127659 | 68° F | 98% | 692.5 mmHg | - | - | - | - |
| 1788126759 | 70° F | 98% | 692.2 mmHg | - | - | - | - |
| 1788125859 | 70° F | 98% | 691.9 mmHg | - | - | - | - |
| 1788124959 | 69° F | 98% | 692 mmHg | - | - | - | - |
| 1788124059 | 70° F | 98% | 691.6 mmHg | - | - | - | - |
| 1788123159 | 70° F | 98% | 691.5 mmHg | - | - | - | - |
| 1788122259 | 71° F | 98% | 691.3 mmHg | - | - | - | - |
| 1788121359 | 71° F | 98% | 691.2 mmHg | - | - | - | - |
| 1788120459 | 72° F | 98% | 691.1 mmHg | - | - | - | - |
| 1788119559 | 72° F | 98% | 690.9 mmHg | - | - | - | - |
| 1788118659 | 71° F | 98% | 690.7 mmHg | - | - | - | - |
| 1788117759 | 74° F | 98% | 690.7 mmHg | - | - | - | - |
| 1788116859 | 75° F | 98% | 691.1 mmHg | - | - | - | - |
| 1788115959 | 74° F | 98% | 691.2 mmHg | - | - | - | - |
* Rain since midnight (hover to see other rain measurements)
** Current wind speed in m/s (hover to see current wind gust speed)